Regional Weather Roundup
Issued by NWS

Home | Current Version | Previous Version | Graphics & Text | Print | Product List | Glossary On
Versions: 1 2 3 4 5 6 7 8 9 10 11 12 13 14 15 16 17 18 19 20 21 22 23 24 25 26 27 28 29 30 31 32 33 34 35 36 37 38 39 40 41 42 43 44 45 46 47 48 49 50
000
ASUS43 KMKX 261211
RWRWI

WISCONSIN REGIONAL WEATHER ROUNDUP
NATIONAL WEATHER SERVICE MILWAUKEE/SULLIVAN WI
700 AM CDT WED JUL 26 2017

NOTE: "FAIR" INDICATES FEW OR NO CLOUDS BELOW 12,000 FEET WITH NO
SIGNIFICANT WEATHER AND/OR OBSTRUCTIONS TO VISIBILITY.

WIZ001-002-006>008-014>016-023>028-261300-
NORTHWEST WISCONSIN

CITY           SKY/WX    TMP DP  RH WIND       PRES   REMARKS
SUPERIOR ARPT  NOT AVBL
ASHLAND        CLOUDY    69  68  96 SW7       29.97R
6HR MIN TEMP:  68; 6HR MAX TEMP:  70; 6HR PCP:  0.01;

HAYWARD        CLOUDY    70  68  93 W3        30.00F
6HR MIN TEMP:  68; 6HR MAX TEMP:  70; 6HR PCP: TRACE;

SIREN          HVY RAIN  69  68  96 CALM      30.00S
6HR MIN TEMP:  68; 6HR MAX TEMP:  71; 6HR PCP:  0.06;

CUMBERLAND     LGT RAIN  70  68  94 W3        30.00F
RICE LAKE      RAIN      69  66  92 W6        30.00F
6HR MIN TEMP:  69; 6HR MAX TEMP:  71; 6HR PCP:  0.18;

CHETEK         LGT RAIN  70  69  96 SW3       29.99F
6HR MIN TEMP:  69; 6HR MAX TEMP:  72; 6HR PCP:  0.12;

LADYSMITH      DRIZZLE   70  69  95 SW5       30.03R
6HR MIN TEMP:  69; 6HR MAX TEMP:  71; 6HR PCP:  0.01;

EAU CLAIRE     RAIN      70  69  97 S5        30.00F FOG
6HR MIN TEMP:  70; 6HR MAX TEMP:  73; 6HR PCP:  0.95;

MENOMONIE      RAIN      69  69  99 CALM      30.00F
6HR MIN TEMP:  69; 6HR MAX TEMP:  72; 6HR PCP:  0.56;

NEW RICHMOND   CLOUDY    69  68  97 E3        29.97F
6HR MIN TEMP:  68; 6HR MAX TEMP:  74; 6HR PCP:  0.40;

OSCEOLA        CLOUDY    72  72 100 CALM      30.00F
6HR MIN TEMP:  72; 6HR MAX TEMP:  74; 6HR PCP:  0.01;

$$

WIZ003>005-009-010-017-018-261300-
NORTH CENTRAL WISCONSIN

CITY           SKY/WX    TMP DP  RH WIND       PRES   REMARKS
MANITOWISH WTR DRIZZLE   69  69 100 SW5       30.00R
6HR MIN TEMP:  67; 6HR MAX TEMP:  69;

ARBOR VITAE    DRIZZLE   72  70  93 W6        29.99S
6HR MIN TEMP:  69; 6HR MAX TEMP:  72;

WOODRUFF       DRIZZLE   72  70  93 W6        29.99S
6HR MIN TEMP:  69; 6HR MAX TEMP:  72;

RHINELANDER    LGT RAIN  69  69 100 SW9       30.00S
6HR MIN TEMP:  68; 6HR MAX TEMP:  69; 6HR PCP:  0.01;

EAGLE RIVER    LGT RAIN  69  68  98 SW9       30.00R
6HR MIN TEMP:  67; 6HR MAX TEMP:  69;

LAND O LAKES   DRIZZLE   69  68  97 SW5       30.01R
6HR MIN TEMP:  68; 6HR MAX TEMP:  69;

PHILLIPS       HVY RAIN  69  69 100 SW8       30.01R
6HR MIN TEMP:  68; 6HR MAX TEMP:  72; 6HR PCP:  0.05;

TOMAHAWK         N/A     67  65  94 W3        30.01R
6HR MIN TEMP:  66; 6HR MAX TEMP:  67;

MEDFORD        LGT RAIN  67  66  96 SW5       30.01R
6HR MIN TEMP:  66; 6HR MAX TEMP:  69; 6HR PCP:  0.02;

MERRILL        NOT AVBL
$$

WIZ029-030-035-036-043>047-261300-
CENTRAL WISCONSIN

CITY           SKY/WX    TMP DP  RH WIND       PRES   REMARKS
WAUSAU         CLOUDY    67  66  97 S3        29.99F FOG
6HR MIN TEMP:  67; 6HR MAX TEMP:  70; 6HR PCP:  0.83;

MOSINEE        MOSUNNY   66  66 100 SW8       30.02S
MARSHFIELD     CLOUDY    67  65  93 SW5       30.00R FOG
6HR MIN TEMP:  67; 6HR MAX TEMP:  69; 6HR PCP:  0.20;

STEVENS POINT  CLOUDY    66  66  99 S9        30.02R
6HR MIN TEMP:  65; 6HR MAX TEMP:  68;

WAUPACA        CLOUDY    68  64  85 SE3       30.01F
6HR MIN TEMP:  67; 6HR MAX TEMP:  69;

WAUTOMA        CLOUDY    67  64  90 S6        30.02F
6HR MIN TEMP:  66; 6HR MAX TEMP:  68;

WISC RAPIDS    CLOUDY    69  66  90 S8        30.02S
6HR MIN TEMP:  68; 6HR MAX TEMP:  70; 6HR PCP: TRACE;

CAMP DOUGLAS   CLOUDY    70  67  92 S5        29.99F
6HR MIN TEMP:  67; 6HR MAX TEMP:  72; 6HR PCP: TRACE;

$$

WIZ011>013-019>022-031-037>040-048>050-261300-
NORTHEAST WISCONSIN

CITY           SKY/WX    TMP DP  RH WIND       PRES   REMARKS
ANTIGO         CLOUDY    66  66 100 SW12      29.99F
6HR MIN TEMP:  64; 6HR MAX TEMP:  67; 6HR PCP:  0.02;

SHAWANO        CLOUDY    67  64  89 SW6       29.98F
6HR MIN TEMP:  67; 6HR MAX TEMP:  70; 6HR PCP:  0.10;

OCONTO         CLOUDY    66  63  90 SW7       29.97F
6HR MIN TEMP:  65; 6HR MAX TEMP:  68; 6HR PCP:  0.03;

STURGEON BAY     N/A     66  63  90 S12       29.98R
6HR MIN TEMP:  65; 6HR MAX TEMP:  68;

GREEN BAY      CLOUDY    68  65  90 SW8       30.00F
6HR MIN TEMP:  66; 6HR MAX TEMP:  68; 6HR PCP:  0.01;

MANITOWOC      CLOUDY    68  60  75 S7        30.04R
6HR MIN TEMP:  67; 6HR MAX TEMP:  69; 6HR PCP: TRACE;

APPLETON       CLOUDY    66  61  82 S6        30.01F
CLINTONVILLE   CLOUDY   N/A N/A N/A S8        30.00F
OSHKOSH        PTSUNNY   67  62  84 S8        30.02F
6HR MIN TEMP:  66; 6HR MAX TEMP:  69;

$$

WIZ032>034-041-042-053>061-261300-
SOUTHWEST WISCONSIN

CITY           SKY/WX    TMP DP  RH WIND       PRES   REMARKS
LA CROSSE      CLOUDY    75  69  81 VRB6      30.00R
6HR MIN TEMP:  75; 6HR MAX TEMP:  77;

SPARTA         CLOUDY    69  66  90 SW3       30.01S
6HR MIN TEMP:  69; 6HR MAX TEMP:  72;

VIROQUA        CLOUDY    69  69 100 S9        30.03S
6HR MIN TEMP:  68; 6HR MAX TEMP:  70;

BOSCOBEL       CLOUDY    71  67  87 CALM      30.03S
6HR MIN TEMP:  70; 6HR MAX TEMP:  73;

PRAIRIE DU CHI CLOUDY    72  66  82 CALM      30.02R
6HR MIN TEMP:  71; 6HR MAX TEMP:  74;

PLATTEVILLE    MOSUNNY   68  68 100 SE3       30.06S
6HR MIN TEMP:  67; 6HR MAX TEMP:  69;

$$

WIZ056-057-062-063-064-067-068-261300-
SOUTH CENTRAL WISCONSIN

CITY           SKY/WX    TMP DP  RH WIND       PRES   REMARKS
REEDSBURG      CLOUDY    68  67  98 S5        30.02F
6HR MIN TEMP:  67; 6HR MAX TEMP:  70;

BARABOO/DELLS  CLOUDY    70  64  80 S8G16     30.02F
6HR MIN TEMP:  68; 6HR MAX TEMP:  70;

LONE ROCK      CLOUDY    68  66  93 E5        30.04F
6HR MIN TEMP:  68; 6HR MAX TEMP:  72;

MINERAL POINT  MOSUNNY   68  68 100 SE6       30.06F
MADISON        CLOUDY    68  63  84 S8        30.05F
6HR MIN TEMP:  68; 6HR MAX TEMP:  71;

MIDDLETON      CLOUDY    68  64  85 S8        30.06S
6HR MIN TEMP:  67; 6HR MAX TEMP:  70;

WATERTOWN      CLOUDY    65  64  94 S6        30.05F
6HR MIN TEMP:  64; 6HR MAX TEMP:  66; 6HR PCP:  0.01;

MONROE         PTSUNNY   64  63  94 S7        30.07F
JANESVILLE     PTSUNNY   66  64  94 S5        30.07S
$$

WIZ051-052-058>065-066-070>072-261300-
SOUTHEAST WISCONSIN

CITY           SKY/WX    TMP DP  RH WIND       PRES   REMARKS
MILWAUKEE      CLOUDY    69  60  73 SW10      30.07R
6HR MIN TEMP:  68; 6HR MAX TEMP:  70;

WAUKESHA       PTSUNNY   64  57  77 SW9       30.08S
MILWAUKEE/TIMM CLOUDY    68  55  64 SW8       30.07S
RACINE         CLOUDY    68  61  78 SW9       30.09S
6HR MIN TEMP:  68; 6HR MAX TEMP:  71;

KENOSHA        MOSUNNY   68  60  75 SW6       30.08S
6HR MIN TEMP:  65; 6HR MAX TEMP:  68;

FOND DU LAC    CLOUDY    68  60  75 S12       30.05F
6HR MIN TEMP:  66; 6HR MAX TEMP:  70;

SHEBOYGAN      CLOUDY    66  64  93 S5        30.05F
6HR MIN TEMP:  65; 6HR MAX TEMP:  68; 6HR PCP:  0.05;

WEST BEND      CLOUDY    68  61  77 SW7       30.06R
JUNEAU         CLOUDY    65  61  85 S7        30.07S
6HR MIN TEMP:  65; 6HR MAX TEMP:  66;

$$

LSZ147-162-261300-
LAKE SUPERIOR

STATION/POSITION TIME  TEMP    WIND        PRES    WAVE
                       AIR SEA DIR/SP/G            HT/PER
                 (UTC) (F)     (DEG/KT/KT) (MB)    (FT/S)
W MID LAKE BUOY  1150   56 51  250/  8/ 10 1013.0R   1
DEVILS ISLAND    1200   63     260/ 10/ 12 1014.1R
PORT WING        1040   69     230/  7/ 11 1013.5
SAXON HARBOR     1140   71     210/  4/  7 1013.9R
$$

LMZ867-665-643>646-261300-
LAKE MICHIGAN

STATION/POSITION TIME  TEMP    WIND        PRES    WAVE
                       AIR SEA DIR/SP/G            HT/PER
                 (UTC) (F)     (DEG/KT/KT) (MB)    (FT/S)
CHAMBERS ISLAND  1140   69     200/  9/ 16 1014.2R
S GREEN BAY BUOY 1200   71 71  200/ 21/ 23 1014.5
N MID LAKE BUOY  1150   68 66



USA.gov is the U.S. government's official web portal to all federal, state and local government web resources and services.